[Date Prev][Date Next][Thread Prev][Thread Next] - [Date Index][Thread Index][Author Index]

2 line ISS Keps 4-30



ISS
1 25544U 98067A   01120.01262006  .00057886  00000-0  74340-3 0  9198
2 25544  51.5728 331.4522 0016678 355.5883 117.2858 15.58379786139559

----
Via the sarex mailing list at AMSAT.ORG courtesy of AMSAT-NA.
To unsubscribe, send "unsubscribe sarex" to Majordomo@amsat.org



AMSAT Top AMSAT Home